Location: Unspecified
(58.9933°N, 5.6375°E)
Time: 22:35:32
(UTC+02:00)

Cosmos 1674 - Visible Passes

Search period start: 30 April 2017 00:00
Search period end: 10 May 2017 00:00
Orbit: 500 x 522 km, 82.5° (Epoch: 29 April)

Date Brightness Start Highest point End Pass type
(mag) Time Alt. Az. Time Alt. Az. Time Alt. Az.
03 May 5.4 04:38:35 10° SE 04:41:25 20° E 04:44:16 10° NE visible
04 May 5.5 04:22:27 10° SE 04:24:59 17° E 04:27:32 10° NE visible
05 May 5.5 04:06:25 10° ESE 04:08:34 15° E 04:10:45 10° NE visible
06 May 5.6 03:50:31 10° ESE 03:52:09 12° E 03:53:49 10° NE visible
07 May 5.8 03:34:57 10° E 03:35:45 11° ENE 03:36:34 10° ENE visible
